Location: Aufkirchen
(47.9603°N, 11.3653°E)
Time: 22:31:53
(UTC+02:00)

Altair - Pass Details

Date: 07 August 2021
Orbit: 1501 x 1682 km, 47.2° (Epoch: 22 September)

Event Time Altitude Azimuth Distance (km) Brightness Sun altitude
Exits shadow 23:11:49 17° 108° (ESE) 3,205 8.7 -19.8°
Drops below altitude 10° 23:15:12 10° 88° (E) 3,728 9.2 -20.1°
Sets 23:19:17 0° 72° (ENE) 4,688 9.9 -20.4°
